HODOYOSHI-3

Last updated on Sun Nov 09 2025 00:02:31 GMT+0000 (Coordinated Universal Time)

1 40015U 14033F 25312.45365095 .00002309 00000+0 27665-3 0 9993 2 40015 97.6197 119.7856 0033369 4.0659 356.0821 14.84621461614863
UTC large
Height (km)
Speed (km/s)
/
Latitude / Longitude
Inclination (degrees)
Orbital Period (minutes)
Azimuth
Elevation
Range (km)
Doppler Factor

Next 0 passes for location: London (51.5072 / 0.1276)

Sorry there are no passes over London.